Location: *
(43.9900°N, 3.4811°E)
Time: 05:11:37
(UTC+00:00)

MOS 1 Rocket - Pass Details

Date: 25 August 2019
Orbit: 616 x 829 km, 97.4° (Epoch: 19 September)

Event Time Altitude Azimuth Distance (km) Brightness Sun altitude
Rises 21:13:42 0° 16° (NNE) 3,362 7.2 -25.1°
Reaches altitude 10° 21:16:07 10° 20° (NNE) 2,437 6.4 -25.4°
Enters shadow 21:20:48 53° 69° (ENE) 1,013 3.9 -26.0°
